Flag Weather past 2 weeks in Rathenow, Brandenburg, Germany

Now
39 °F

Overcast.


Feels Like: 36 °F
Forecast: 32 / 40 °F
Wind: 5 mph from Southeast

Location: Neuruppin

Current Time: Nov 26, 2014 at 4:14:07 PM

Latest Report: Nov 26, 2014 at 3:00 PM


Visibility: 6 mi

Pressure: 30.23 "Hg

Humidity: 89%

Dew point: 36 °F

Location of RathenowLocation

Historic Weather in Rathenow — Graph

°F

Rathenow temperature yesterday

Maximum temperature yesterday: 42 °F (at 6:00 AM)
Minimum temperature yesterday: 38 °F (at 3:00 AM)
Average temperature yesterday: 40 °F

Past Weeks' High & Low Weather Summary

 TemperatureHumidityPressure
High54 °F (Nov 14, 12:00 PM)100% (Nov 12, 6:00 AM)30.38 "Hg (Nov 12, 6:00 AM)
Low32 °F (Nov 21, 7:00 AM)71% (Nov 22, 1:00 PM)29.59 "Hg (Nov 16, 2:00 PM)
Average44 °F93%30.05 "Hg
* Reported Nov 11 3:00 PM — Nov 26 3:00 PM, Rathenow, Weather by CustomWeather, © 2014

Note: Actual official high and low records may vary slightly from our data, if they occured in-between our weather recording intervals... More about our weather records

Advertising

Rathenow weather history for previous 24 hours

 ConditionsComfort  
Time TempWeatherWind HumidityBarometerVisibility
3:00 PM
Nov 26
39 °FOvercast.5 mph89%30.23 "Hg6 mi
2:00 PM39 °FLow clouds.6 mph90%30.24 "Hg6 mi
1:00 PM40 °FLow clouds.5 mph90%30.26 "Hg6 mi
12:00 PM40 °FLow clouds.5 mph91%30.27 "Hg6 mi
11:00 AM39 °FLow clouds.6 mph93%30.28 "Hg6 mi
9:00 AM38 °FSunny.3 mph96%30.29 "Hg6 mi
8:00 AM39 °FScattered clouds.3 mph95%30.29 "Hg6 mi
7:00 AM40 °FOvercast.3 mph91%30.28 "Hg6 mi
6:00 AM40 °FOvercast.3 mph94%30.28 "Hg6 mi
5:00 AM40 °FOvercast.3 mph97%30.28 "Hg6 mi
3:00 AM40 °FLow clouds.2 mph97%30.31 "Hg3 mi
2:00 AM40 °FLow clouds.No wind98%30.32 "Hg2 mi
1:00 AM40 °FLow clouds.1 mph98%30.34 "Hg2 mi
12:00 AM39 °FLow clouds.No wind97%30.35 "Hg4 mi
11:00 PM
Nov 25
39 °FLow clouds.1 mph97%30.35 "Hg2 mi
9:00 PM39 °FLow clouds.No wind97%30.36 "Hg6 mi
8:00 PM40 °FLow clouds.1 mph99%30.36 "Hg6 mi
7:00 PM39 °FLow clouds.2 mph99%30.37 "Hg3 mi
6:00 PM40 °FLow clouds.2 mph100%30.37 "Hg3 mi
5:00 PM39 °FLow clouds.No wind98%30.36 "Hg1 mi
Weather by CustomWeather, © 2014

See weather overviewHow to use our weather pages